FW4383 Weather Reports


time (UTC)temp
F
wind
direction
speed
knots
gust
knots
rain 1hr
in
rain 24hr
in
rain mn
in
humidity
%
barometer
mb
20260505161538 60 265 7.8 17.4 0.00 0.00 0.00 73 1016.3
20260505151537 58 247 6.1 12.2 0.00 0.00 0.00 77 1016.3
20260505124535 56 256 4.3 13.0 0.00 0.00 0.00 81 1015.4
20260505123031 56 259 4.3 9.6 0.00 0.00 0.00 80 1015.3
20260505121534 57 265 6.1 13.9 0.00 0.00 0.00 80 1015.2
20260505114534 57 258 6.1 10.4 0.00 0.00 0.00 79 1015.0
20260505113035 57 256 6.1 13.0 0.00 0.00 0.00 79 1015.0
20260505111536 58 256 7.0 13.9 0.00 0.00 0.00 78 1014.9
20260505101534 58 257 7.8 15.6 0.00 0.00 0.00 77 1014.4
20260505100044 59 251 5.2 12.2 0.00 0.00 0.00 76 1014.4
20260505094530 59 256 5.2 12.2 0.00 0.00 0.00 76 1014.2
20260505093031 60 253 7.0 14.8 0.00 0.00 0.00 75 1014.1
20260505091535 60 245 6.1 15.6 0.00 0.00 0.00 74 1014.0
20260505090036 61 238 6.1 14.8 0.00 0.00 0.00 73 1013.8
20260505084534 62 244 6.1 13.9 0.00 0.00 0.00 73 1013.7
20260505083110 62 244 7.0 13.0 0.00 0.00 0.00 73 1013.7
20260505081536 63 249 5.2 11.3 0.00 0.00 0.00 73 1013.5
20260505080036 63 252 6.1 12.2 0.00 0.00 0.00 73 1013.4
20260505074533 64 250 7.8 14.8 0.00 0.00 0.00 72 1013.3
20260505073033 64 251 6.1 12.2 0.00 0.00 0.00 72 1013.2
20260505071537 65 251 5.2 11.3 0.00 0.00 0.00 70 1013.1
20260505070034 65 254 7.0 14.8 0.00 0.00 0.00 69 1012.9
20260505063030 66 251 6.1 13.0 0.00 0.00 0.00 67 1012.6
20260505060031 67 248 4.3 13.9 0.00 0.00 0.00 64 1012.5
20260505053033 67 258 3.5 12.2 0.00 0.00 0.00 62 1012.4
20260505041536 69 256 5.2 14.8 0.00 0.00 0.00 56 1011.6
20260505040049 69 249 4.3 13.9 0.00 0.00 0.00 56 1011.5
20260505034534 70 259 3.5 9.6 0.00 0.00 0.00 54 1011.2
20260505033145 70 258 6.1 13.0 0.00 0.00 0.00 54 1010.9
20260505024609 72 251 5.2 12.2 0.00 0.00 0.00 53 1010.4
20260505020036 74 248 3.5 13.0 0.00 0.00 0.00 50 1010.2
20260505013032 74 242 5.2 13.0 0.00 0.00 0.00 51 1010.0
20260505011536 74 249 7.0 14.8 0.00 0.00 0.00 50 1010.0
20260505004535 75 261 7.8 17.4 0.00 0.00 0.00 49 1010.0
20260505003111 75 270 8.7 17.4 0.00 0.00 0.00 48 1009.9
20260505001532 75 271 8.7 18.2 0.00 0.00 0.00 47 1009.8
20260505000034 76 271 8.7 20.9 0.00 0.00 0.00 47 1009.8
20260504234534 76 273 7.8 15.6 0.00 0.00 0.00 47 1009.7
20260504233034 76 277 7.8 15.6 0.00 0.00 0.00 47 1009.6
20260504231535 76 271 8.7 19.1 0.00 0.00 0.00 47 1009.7
20260504224536 76 272 8.7 20.0 0.00 0.00 0.00 47 1010.0
20260504223031 76 274 8.7 18.2 0.00 0.00 0.00 47 1010.2
20260504221536 76 275 9.6 17.4 0.00 0.00 0.00 48 1010.3
20260504220033 76 274 7.8 17.4 0.00 0.00 0.00 47 1010.3
20260504213031 77 271 7.0 15.6 0.00 0.00 0.00 46 1010.7
20260504211532 76 279 8.7 17.4 0.00 0.00 0.00 47 1010.8
20260504210110 76 276 7.0 19.1 0.00 0.00 0.00 47 1010.9
20260504204532 75 269 7.0 13.9 0.00 0.00 0.00 47 1011.2
20260504203033 76 267 7.0 14.8 0.00 0.00 0.00 46 1011.3
20260504201534 76 263 5.2 12.2 0.00 0.00 0.00 46 1011.4
20260504200036 76 279 3.5 9.6 0.00 0.00 0.00 46 1011.6
20260504194534 76 253 3.5 13.9 0.00 0.00 0.00 46 1011.7
20260504193111 75 271 2.6 7.8 0.00 0.00 0.00 49 1011.9
20260504191608 75 260 2.6 7.8 0.00 0.00 0.00 49 1012.0
20260504190031 73 230 2.6 8.7 0.00 0.00 0.00 51 1012.2
20260504184537 72 237 3.5 13.0 0.00 0.00 0.00 51 1012.2
20260504183036 71 235 5.2 11.3 0.00 0.00 0.00 52 1012.3
20260504181535 70 243 7.0 13.9 0.00 0.00 0.00 54 1012.4
20260504180030 69 253 7.8 15.6 0.00 0.00 0.00 55 1012.5
20260504174530 68 266 8.7 16.5 0.00 0.00 0.00 56 1012.5
20260504173031 68 270 10.4 19.1 0.00 0.00 0.00 56 1012.5
20260504171535 68 279 7.8 15.6 0.00 0.00 0.00 57 1012.5